TimeEDT,TemperatureF,Dew PointF,Humidity,Sea Level PressureIn,VisibilityMPH,Wind Direction,Wind SpeedMPH,Gust SpeedMPH,PrecipitationIn,Events,Conditions,WindDirDegrees,DateUTC
12:52 AM,59.0,55.9,90,30.05,10.0,East,9.2,-,N/A,,Overcast,80,2013-05-07 04:52:00
1:33 AM,57.2,55.4,94,30.04,7.0,ENE,8.1,17.3,N/A,,Overcast,70,2013-05-07 05:33:00
1:52 AM,57.9,55.9,93,30.03,4.0,East,11.5,-,N/A,,Overcast,80,2013-05-07 05:52:00
2:52 AM,57.9,55.9,93,30.01,5.0,East,10.4,-,N/A,,Overcast,80,2013-05-07 06:52:00
3:52 AM,57.2,57.2,100,30.01,7.0,East,10.4,-,N/A,,Overcast,80,2013-05-07 07:52:00
4:52 AM,57.9,57.0,97,30.00,10.0,East,12.7,-,N/A,,Overcast,80,2013-05-07 08:52:00
5:21 AM,57.2,57.2,100,30.00,10.0,East,9.2,19.6,N/A,,Overcast,80,2013-05-07 09:21:00
5:52 AM,57.9,57.0,97,29.99,10.0,ENE,11.5,-,N/A,,Overcast,70,2013-05-07 09:52:00
6:52 AM,59.0,57.0,93,30.01,7.0,ENE,10.4,-,N/A,,Overcast,70,2013-05-07 10:52:00
7:52 AM,59.0,57.0,93,30.01,8.0,East,9.2,-,0.00,,Overcast,80,2013-05-07 11:52:00
8:52 AM,60.1,57.0,90,30.02,10.0,East,11.5,19.6,N/A,,Overcast,80,2013-05-07 12:52:00
9:52 AM,59.0,57.0,93,30.03,6.0,East,8.1,-,0.00,Rain,Light Rain,80,2013-05-07 13:52:00
10:52 AM,59.0,57.0,93,30.03,10.0,ENE,8.1,-,0.15,Rain,Light Rain,70,2013-05-07 14:52:00
11:04 AM,59.0,57.2,94,30.02,2.5,ENE,9.2,-,0.02,Rain,Heavy Rain,60,2013-05-07 15:04:00
11:12 AM,59.0,57.2,94,30.02,1.5,ENE,8.1,17.3,0.08,Rain,Heavy Rain,60,2013-05-07 15:12:00
11:22 AM,59.0,57.2,94,30.02,3.0,ENE,5.8,-,0.20,Rain,Rain,60,2013-05-07 15:22:00
11:52 AM,60.1,57.9,93,30.01,4.0,ENE,9.2,-,0.25,Rain,Light Rain,60,2013-05-07 15:52:00
11:54 AM,60.8,57.2,88,30.01,1.8,ENE,9.2,-,0.00,Rain,Light Rain,60,2013-05-07 15:54:00
12:13 PM,59.0,57.2,94,30.01,2.5,ENE,9.2,-,0.09,Rain,Light Rain,60,2013-05-07 16:13:00
12:27 PM,60.8,57.2,88,30.01,5.0,ENE,10.4,-,0.11,Rain,Light Rain,60,2013-05-07 16:27:00
12:52 PM,60.1,57.9,93,30.00,7.0,ENE,10.4,-,0.14,Rain,Light Rain,60,2013-05-07 16:52:00
1:02 PM,60.8,57.2,88,30.00,10.0,ENE,11.5,-,0.00,Rain,Light Rain,60,2013-05-07 17:02:00
1:15 PM,60.8,57.2,88,29.99,3.0,ENE,11.5,-,0.01,Rain,Light Rain,60,2013-05-07 17:15:00
1:52 PM,61.0,57.9,90,29.98,5.0,ENE,9.2,19.6,0.04,,Overcast,70,2013-05-07 17:52:00
2:32 PM,60.8,59.0,94,29.97,1.8,ENE,15.0,25.3,0.04,Rain,Rain,70,2013-05-07 18:32:00
2:43 PM,62.6,59.0,88,29.97,3.0,East,12.7,-,0.07,Rain,Light Rain,80,2013-05-07 18:43:00
2:52 PM,62.1,59.0,90,29.97,1.5,East,11.5,-,0.07,Rain,Rain,80,2013-05-07 18:52:00
2:57 PM,62.6,59.0,88,29.97,3.0,East,11.5,-,0.01,Rain,Light Rain,80,2013-05-07 18:57:00
3:23 PM,62.6,59.0,88,29.97,1.5,East,12.7,-,0.02,Rain,Light Rain,80,2013-05-07 19:23:00
3:27 PM,62.6,59.0,88,29.97,4.0,East,11.5,-,0.03,Rain,Light Rain,80,2013-05-07 19:27:00
3:52 PM,62.1,59.0,90,29.96,7.0,East,12.7,-,0.03,,Overcast,80,2013-05-07 19:52:00
4:03 PM,62.6,60.8,94,29.95,2.0,East,12.7,17.3,0.01,Rain,Light Rain,80,2013-05-07 20:03:00
4:16 PM,62.6,59.0,88,29.94,4.0,ENE,12.7,-,0.04,Rain,Light Rain,60,2013-05-07 20:16:00
4:52 PM,62.1,60.1,93,29.94,7.0,ENE,11.5,-,0.09,Rain,Light Rain,60,2013-05-07 20:52:00
5:28 PM,64.4,60.8,88,29.93,10.0,East,12.7,18.4,0.02,,Mostly Cloudy,80,2013-05-07 21:28:00
5:52 PM,64.0,61.0,90,29.93,10.0,East,12.7,-,0.02,,Mostly Cloudy,80,2013-05-07 21:52:00
6:52 PM,63.0,59.0,87,29.92,10.0,East,13.8,-,N/A,,Overcast,80,2013-05-07 22:52:00
7:52 PM,63.0,57.9,84,29.94,10.0,East,12.7,-,N/A,,Overcast,90,2013-05-07 23:52:00
8:34 PM,62.6,59.0,88,29.94,8.0,East,10.4,-,0.01,Rain,Light Rain,90,2013-05-08 00:34:00
8:52 PM,62.1,59.0,90,29.94,3.0,East,11.5,-,0.04,Rain,Light Rain,90,2013-05-08 00:52:00
9:52 PM,62.1,59.0,90,29.95,5.0,East,11.5,-,0.01,,Overcast,100,2013-05-08 01:52:00
10:40 PM,60.8,57.2,88,29.95,4.0,East,15.0,19.6,0.10,Rain-Thunderstorm,Thunderstorms and Rain,100,2013-05-08 02:40:00
10:52 PM,61.0,57.9,90,29.96,5.0,ESE,5.8,16.1,0.12,Rain-Thunderstorm,Light Thunderstorms and Rain,120,2013-05-08 02:52:00
11:52 PM,57.0,54.0,89,29.98,10.0,South,3.5,-,0.04,,Overcast,180,2013-05-08 03:52:00